Location: Poprad
(49.0500°N, 20.3000°E)
Time: 05:33:28
(UTC+02:00)

ITAMSAT 1 - Visible Passes

Search period start: 16 April 2024 00:00
Search period end: 26 April 2024 00:00
Orbit: 783 x 794 km, 98.8° (Epoch: 15 April)

Date Brightness Start Highest point End Pass type
(mag) Time Alt. Az. Time Alt. Az. Time Alt. Az.
16 Apr 7.7 20:37:53 10° SSE 20:43:05 73° ENE 20:48:19 10° NNW visible
16 Apr 10.0 22:19:33 10° SW 22:23:05 18° W 22:26:38 10° NW visible
17 Apr 8.2 20:08:28 10° SE 20:13:21 42° ENE 20:18:17 10° N visible
17 Apr 9.2 21:48:17 10° SSW 21:52:54 31° W 21:57:33 10° NNW visible
18 Apr 8.3 21:17:45 10° S 21:22:52 55° W 21:28:01 10° NNW visible
19 Apr 7.7 20:47:44 10° SSE 20:52:57 86° ENE 20:58:14 10° NNW visible
19 Apr 10.1 22:30:09 10° WSW 22:33:05 15° W 22:36:03 10° NW visible
20 Apr 8.0 20:18:09 10° SE 20:23:11 50° ENE 20:28:14 10° N visible
20 Apr 9.5 21:58:32 10° SSW 22:02:52 26° W 22:07:15 10° NW visible
21 Apr 8.6 21:27:47 10° S 21:32:48 46° W 21:37:50 10° NNW visible
22 Apr 7.8 20:57:36 10° SSE 21:02:50 80° WSW 21:08:06 10° NNW visible
22 Apr 10.2 22:41:00 10° WSW 22:43:07 12° W 22:45:14 10° WNW visible
23 Apr 7.8 20:27:53 10° SSE 20:33:01 60° ENE 20:38:10 10° N visible
23 Apr 9.7 22:08:50 10° SW 22:12:51 22° W 22:16:53 10° NW visible
24 Apr 8.9 21:37:52 10° SSW 21:42:43 38° W 21:47:36 10° NNW visible
25 Apr 8.0 21:07:32 10° S 21:12:43 67° WSW 21:17:57 10° NNW visible
